Regional Weather Roundup
Issued by NWS

Home | Current Version | Previous Version | Text Only | Print | Product List | Glossary On
Versions: 1 2 3 4 5 6 7 8 9 10 11 12 13 14 15 16 17 18 19 20 21 22 23 24 25 26 27 28 29 30 31 32 33 34 35 36 37 38 39 40 41 42 43 44 45 46 47 48 49 50
000
ASUS44 KJAN 201310
RWRMS

MISSISSIPPI HOURLY WEATHER ROUNDUP
NATIONAL WEATHER SERVICE JACKSON MS
700 AM CST SAT DEC 20 2014

NOTE: "FAIR: INDICATES FEW OR NO CLOUDS BELOW 12,000 FEET WITH NO
SIGNIFICANT WEATHER AND/OR OBSTRUCTIONS TO VISIBILITY.

MSZ001>002-007>008-010>013-018>021-025>028-034>036-201400-
NORTHWEST MISSISSIPPI

CITY           SKY/WX    TMP DP  RH WIND       PRES   REMARKS
CLARKSDALE     FAIR      34  34 100 N5        30.27R WCI  30
CLEVELAND      FAIR      36  35  97 NE6       30.25R WCI  31
GREENWOOD      CLEAR     36  34  92 CALM      30.25R
GREENVILLE     CLEAR     37  35  92 N7        30.25R FOG     WCI  32
GRENADA        FAIR      34  32  93 CALM      30.26R
OLIVE BRANCH   MOCLDY    34  34 100 CALM      30.27R
OXFORD         FAIR      32  30  93 CALM      30.27R FOG
TUNICA         CLOUDY    37  34  87 N5        30.28R WCI  34
$$

MSZ003>006-009-014>017-022>024-029>033-037>039-201400-
NORTHEAST MISSISSIPPI

CITY           SKY/WX    TMP DP  RH WIND       PRES   REMARKS
COLUMBUS AFB   CLEAR     35  34  94 N5        30.24R WCI  31
CORINTH        FAIR      32  30  93 N3        30.25R
GOLDN TRIANGLE CLEAR     36  32  87 NW5       30.22R FOG     WCI  32
STARKVILLE     FAIR      36  34  93 CALM      30.24R FOG
TUPELO         CLEAR     32  30  92 NE7       30.25R WCI  26
$$

MSZ040-058-201400-
CENTRAL MISSISSIPPI

CITY           SKY/WX    TMP DP  RH WIND       PRES   REMARKS
JACKSON INTL   CLOUDY    43  41  93 NE6       30.20R
JACKSON HAWKNS CLOUDY    43  40  89 NE3       30.21R
MERIDIAN KEY   CLOUDY    42  39  89 N10       30.21R
MERIDIAN NAS   CLOUDY    41  39  93 N6        30.22R
RAYMOND        CLOUDY    43  39  87 NE5       30.20S
VICKSBURG      CLOUDY    44  42  93 N10       30.22R FOG
$$

MSZ059>079-201400-
SOUTH MISSISSIPPI

CITY           SKY/WX    TMP DP  RH WIND       PRES   REMARKS
HATTIESBURG    CLOUDY    46  44  93 N6        30.18R
MCCOMB         CLOUDY    45  43  93 VRB5      30.15R
NATCHEZ        CLOUDY    45  43  93 NE6       30.19R
PINE BELT      CLOUDY    45  41  87 N8        30.18R
$$

MSZ080>082-201400-
COASTAL MISSISSIPPI

CITY           SKY/WX    TMP DP  RH WIND       PRES   REMARKS
BAY ST LOUIS   CLOUDY    46  43  87 N10       30.13
BILOXI         CLOUDY    47  47 100 NE15      30.12S
PASCAGOULA     LGT RAIN  47  45  93 N13       30.13R
GULFPORT       CLOUDY    47  45  93 N10G21    30.12S
$$



USA.gov is the U.S. government's official web portal to all federal, state and local government web resources and services.